CW4427 Weather Reports


Display with metric or nautical units.
time (UTC)temp
F
wind
direction
speed
MPH
gust
MPH
rain 1hr
in
rain 24hr
in
rain mn
in
humidity
%
barometer
mb
20210116082124 37 264 12.0 17.0 0.00 0.00 0.00 76 1008.0
20210116081125 37 273 7.0 11.0 0.00 0.00 0.00 76 1008.1
20210116080126 37 263 3.0 14.0 0.00 0.00 0.00 76 1007.9
20210116075124 38 263 6.0 12.0 0.00 0.00 0.00 75 1007.8
20210116074124 38 234 6.0 17.0 0.00 0.00 0.00 75 1007.8
20210116073125 37 251 7.0 16.0 0.00 0.00 0.00 75 1007.7
20210116072124 37 295 5.0 12.0 0.00 0.00 0.00 75 1007.5
20210116071124 37 340 5.0 14.0 0.00 0.00 0.00 75 1007.5
20210116070125 38 292 3.0 15.0 0.00 0.00 0.00 74 1007.3
20210116065125 38 280 2.0 11.0 0.00 0.00 0.00 73 1007.4
20210116064123 38 329 11.0 15.0 0.00 0.00 0.00 71 1007.3
20210116063129 38 240 6.0 16.0 0.00 0.00 0.00 70 1007.3
20210116062124 38 235 5.0 14.0 0.00 0.00 0.00 70 1007.3
20210116061124 38 296 9.0 12.0 0.00 0.00 0.00 69 1007.4
20210116060124 38 309 7.0 17.0 0.00 0.00 0.00 68 1007.3
20210116055125 38 251 9.0 15.0 0.00 0.00 0.00 68 1007.1
20210116054124 38 274 8.0 17.0 0.00 0.00 0.00 67 1007.0
20210116053125 38 288 15.0 16.0 0.00 0.00 0.00 67 1007.0
20210116052127 38 267 4.0 16.0 0.00 0.00 0.00 68 1006.9
20210116051124 38 252 5.0 13.0 0.00 0.00 0.00 69 1006.9
20210116050126 38 263 9.0 20.0 0.00 0.00 0.00 69 1007.0
20210116045126 38 279 12.0 24.0 0.00 0.00 0.00 67 1006.9
20210116044123 39 261 8.0 22.0 0.00 0.00 0.00 67 1007.1
20210116043129 38 313 8.0 15.0 0.00 0.00 0.00 68 1006.9
20210116042126 38 259 14.0 14.0 0.00 0.00 0.00 70 1007.0
20210116041127 38 246 7.0 14.0 0.00 0.00 0.00 72 1006.9
20210116040128 38 252 5.0 19.0 0.00 0.00 0.00 73 1006.9
20210116035124 37 260 4.0 14.0 0.00 0.00 0.00 74 1007.0
20210116034125 37 265 4.0 12.0 0.00 0.00 0.00 74 1006.9
20210116033124 37 269 8.0 15.0 0.00 0.00 0.00 75 1007.0
20210116032123 37 260 2.0 12.0 0.00 0.00 0.00 76 1006.9
20210116031124 37 257 8.0 16.0 0.00 0.00 0.00 77 1006.9
20210116030124 37 306 5.0 19.0 0.00 0.00 0.00 77 1007.1
20210116025124 39 311 15.0 17.0 0.00 0.00 0.00 71 1007.2
20210116024124 40 225 6.0 15.0 0.00 0.00 0.00 67 1007.0
20210116023123 40 257 7.0 16.0 0.00 0.00 0.00 65 1006.8
20210116022128 40 236 12.0 22.0 0.00 0.00 0.00 64 1006.9
20210116021128 40 244 12.0 20.0 0.00 0.00 0.00 62 1006.9
20210116020123 40 258 8.0 13.0 0.00 0.00 0.00 63 1006.9
20210116015125 40 250 3.0 10.0 0.00 0.00 0.00 63 1006.7
20210116014123 40 267 3.0 12.0 0.00 0.00 0.00 62 1006.8
20210116013124 40 288 5.0 11.0 0.00 0.00 0.00 61 1006.7
20210116012124 40 282 3.0 13.0 0.00 0.00 0.00 61 1006.6
20210116011124 41 275 6.0 16.0 0.00 0.00 0.00 60 1006.8
20210116010127 41 255 10.0 16.0 0.00 0.00 0.00 59 1006.8
20210116005130 41 269 9.0 20.0 0.00 0.00 0.00 59 1006.9
20210116004127 41 304 14.0 19.0 0.00 0.00 0.00 57 1007.0
20210116003123 41 253 8.0 20.0 0.00 0.00 0.00 57 1006.9
20210116002123 42 232 4.0 16.0 0.00 0.00 0.00 56 1006.7
20210116001123 42 249 8.0 20.0 0.00 0.00 0.00 55 1006.7
20210116000125 42 262 10.0 13.0 0.00 0.00 0.00 55 1006.7
20210115235126 42 258 4.0 17.0 0.00 0.00 0.00 55 1006.6
20210115234124 42 253 7.0 16.0 0.00 0.00 0.00 54 1006.6
20210115233123 41 270 4.0 12.0 0.00 0.00 0.00 56 1006.5
20210115232126 42 259 7.0 11.0 0.00 0.00 0.00 56 1006.6
20210115231125 42 250 9.0 18.0 0.00 0.00 0.00 56 1006.5
20210115230122 42 250 11.0 15.0 0.00 0.00 0.00 54 1006.5
20210115225122 42 278 9.0 16.0 0.00 0.00 0.00 54 1006.5
20210115224126 42 233 6.0 13.0 0.00 0.00 0.00 53 1006.4
20210115223123 42 250 4.0 14.0 0.00 0.00 0.00 54 1006.2
20210115222123 42 269 9.0 17.0 0.00 0.00 0.00 53 1006.2
20210115221150 43 253 7.0 17.0 0.00 0.00 0.00 54 1006.2
20210115220124 43 246 9.0 27.0 0.00 0.00 0.00 53 1006.1
20210115215122 44 303 7.0 17.0 0.00 0.00 0.00 52 1005.9
20210115214123 43 237 9.0 20.0 0.00 0.00 0.00 55 1005.7
20210115213133 43 276 12.0 19.0 0.00 0.00 0.00 54 1005.7
20210115212122 44 290 9.0 16.0 0.00 0.00 0.00 52 1005.6
20210115211122 44 248 9.0 20.0 0.00 0.00 0.00 50 1005.4
20210115210127 44 249 18.0 19.0 0.00 0.00 0.00 50 1005.3
20210115205125 45 233 7.0 17.0 0.00 0.00 0.00 49 1005.1
20210115204122 45 276 17.0 21.0 0.00 0.00 0.00 48 1004.8
20210115203124 45 266 13.0 25.0 0.00 0.00 0.00 46 1004.7
20210115202123 45 252 14.0 18.0 0.00 0.00 0.00 48 1004.6
20210115201124 46 258 8.0 22.0 0.00 0.00 0.00 47 1004.4
20210115200122 45 250 10.0 23.0 0.00 0.00 0.00 47 1004.4
20210115195124 45 268 7.0 21.0 0.00 0.00 0.00 46 1004.4
20210115194128 46 239 11.0 19.0 0.00 0.00 0.00 45 1004.2
20210115193123 46 286 2.0 20.0 0.00 0.00 0.00 45 1004.1
20210115192124 46 240 6.0 19.0 0.00 0.00 0.00 45 1004.0
20210115191126 47 253 10.0 24.0 0.00 0.00 0.00 43 1004.0
20210115190122 50 279 10.0 16.0 0.00 0.00 0.00 42 1004.0
20210115185122 50 217 6.0 21.0 0.00 0.00 0.00 42 1004.0
20210115184123 50 304 8.0 21.0 0.00 0.00 0.00 41 1004.3
20210115183125 48 211 11.0 20.0 0.00 0.00 0.00 44 1004.4
20210115182122 48 241 11.0 19.0 0.00 0.00 0.00 43 1004.4
20210115181122 47 333 4.0 16.0 0.00 0.00 0.00 44 1004.5
20210115180124 47 282 8.0 17.0 0.00 0.00 0.00 43 1004.5
20210115175126 48 276 11.0 18.0 0.00 0.00 0.00 41 1004.7
20210115174121 49 279 7.0 19.0 0.00 0.00 0.00 42 1004.8
20210115173125 49 272 9.0 14.0 0.00 0.00 0.00 42 1005.0
20210115172122 48 290 5.0 19.0 0.00 0.00 0.00 42 1005.2
20210115171123 48 183 3.0 20.0 0.00 0.00 0.00 40 1005.4
20210115170122 48 285 14.0 18.0 0.00 0.00 0.00 41 1005.5
20210115165122 48 269 8.0 20.0 0.00 0.00 0.00 40 1005.6
20210115164124 48 215 2.0 17.0 0.00 0.00 0.00 41 1005.7
20210115163121 48 240 5.0 17.0 0.00 0.00 0.00 40 1005.8
20210115162121 48 226 8.0 18.0 0.00 0.00 0.00 40 1005.8
20210115161123 47 281 11.0 15.0 0.00 0.00 0.00 39 1006.0
20210115160129 47 306 9.0 18.0 0.00 0.00 0.00 41 1006.1
20210115155121 47 259 10.0 14.0 0.00 0.00 0.00 42 1006.1
20210115154122 47 297 3.0 11.0 0.00 0.00 0.00 43 1006.1
20210115153123 46 229 9.0 14.0 0.00 0.00 0.00 45 1006.2
20210115152129 46 243 9.0 14.0 0.00 0.00 0.00 47 1006.1
20210115151123 45 252 7.0 13.0 0.00 0.00 0.00 49 1006.0
20210115150121 43 265 11.0 15.0 0.00 0.00 0.00 49 1006.1
20210115145121 42 255 7.0 12.0 0.00 0.00 0.00 53 1006.0
20210115144124 41 224 5.0 12.0 0.00 0.00 0.00 56 1006.0
20210115143122 40 255 5.0 11.0 0.00 0.00 0.00 60 1005.8
20210115142121 39 248 4.0 9.0 0.00 0.00 0.00 62 1005.7
20210115141121 38 271 4.0 9.0 0.00 0.00 0.00 64 1005.6
20210115140123 37 254 3.0 6.0 0.00 0.00 0.00 66 1005.6
20210115135121 37 277 3.0 9.0 0.00 0.00 0.00 67 1005.7
20210115134121 37 254 2.0 8.0 0.00 0.00 0.00 67 1005.8
20210115133122 37 265 8.0 8.0 0.00 0.00 0.00 68 1005.8
20210115132122 37 236 2.0 7.0 0.00 0.00 0.00 68 1005.6
20210115131121 37 256 5.0 12.0 0.00 0.00 0.00 67 1005.6
20210115130221 37 271 8.0 9.0 0.00 0.00 0.00 68 1005.6
20210115125120 38 258 7.0 8.0 0.00 0.00 0.00 68 1005.6
20210115124121 38 237 4.0 8.0 0.00 0.00 0.00 68 1005.7
20210115123123 38 290 4.0 13.0 0.00 0.00 0.00 68 1005.7
20210115122121 38 243 3.0 10.0 0.00 0.00 0.00 69 1005.8
20210115121211 38 261 3.0 8.0 0.00 0.00 0.00 69 1005.7
20210115120136 37 240 3.0 10.0 0.00 0.00 0.00 70 1005.9
20210115115128 37 259 2.0 10.0 0.00 0.00 0.00 69 1005.8
20210115114121 38 266 2.0 7.0 0.00 0.00 0.00 69 1005.8
20210115113122 38 298 2.0 8.0 0.00 0.00 0.00 70 1005.7
20210115112123 38 236 3.0 12.0 0.00 0.00 0.00 70 1005.7
20210115111123 37 255 3.0 8.0 0.00 0.00 0.00 71 1005.8
20210115110122 37 247 3.0 9.0 0.00 0.00 0.00 71 1005.6
20210115105122 37 246 2.0 7.0 0.00 0.00 0.00 71 1005.6
20210115104121 37 267 2.0 4.0 0.00 0.00 0.00 71 1005.7
20210115103121 37 254 3.0 6.0 0.00 0.00 0.00 71 1005.6
20210115102126 38 245 4.0 7.0 0.00 0.00 0.00 70 1005.7
20210115101120 38 264 6.0 8.0 0.00 0.00 0.00 71 1005.9
20210115100136 38 222 1.0 8.0 0.00 0.00 0.00 72 1006.1
20210115095122 37 245 2.0 4.0 0.00 0.00 0.00 74 1006.3
20210115094122 36 182 0.0 2.0 0.00 0.00 0.00 74 1006.4
20210115093125 37 182 2.0 2.0 0.00 0.00 0.00 74 1006.6
20210115092124 37 182 1.0 2.0 0.00 0.00 0.00 74 1006.7
20210115091124 37 212 2.0 3.0 0.00 0.00 0.00 75 1006.8
20210115090153 38 194 2.0 3.0 0.00 0.00 0.00 73 1006.8
20210115085205 37 194 2.0 4.0 0.00 0.00 0.00 73 1007.0
20210115084149 38 190 1.0 2.0 0.00 0.00 0.00 72 1007.0
20210115083121 38 191 2.0 3.0 0.00 0.00 0.00 73 1006.9